Hourly Weather Kozlovka

Today, 20 October, Tuesday

Time Temperature Precipitation Wind Pressure Humidity
00:00 +1°C° 0 mm 6 mps 745 mmHg 82%
01:00 +1°C° 0 mm 6 mps 745 mmHg 84%
02:00 +1°C° 0 mm 6 mps 746 mmHg 86%
03:00 +1°C° 0 mm 6 mps 746 mmHg 86%
04:00 +1°C° 0 mm 6 mps 746 mmHg 86%
05:00 +1°C° 0 mm 6 mps 746 mmHg 86%
06:00 +1°C° 0 mm 6 mps 746 mmHg 84%
07:00 +1°C° 0 mm 6 mps 746 mmHg 82%
08:00 0°C° 0 mm 7 mps 747 mmHg 81%
09:00 0°C° 0 mm 7 mps 747 mmHg 78%
10:00 +2°C° 0 mm 7 mps 748 mmHg 76%
11:00 +2°C° 0 mm 7 mps 748 mmHg 73%
12:00 +3°C° 0 mm 6 mps 749 mmHg 72%
13:00 +3°C° 0 mm 6 mps 750 mmHg 70%
14:00 +3°C° 0 mm 6 mps 750 mmHg 69%
15:00 +3°C° 0 mm 5 mps 750 mmHg 71%
16:00 +3°C° 0 mm 4 mps 751 mmHg 73%
17:00 +3°C° 0 mm 3 mps 751 mmHg 75%
18:00 +3°C° 0 mm 3 mps 751 mmHg 78%
19:00 +2°C° 0 mm 3 mps 751 mmHg 81%
20:00 +3°C° 0 mm 2 mps 751 mmHg 84%
21:00 +3°C° 0 mm 2 mps 751 mmHg 85%
22:00 +3°C° 0 mm 2 mps 751 mmHg 85%
23:00 +3°C° 0 mm 2 mps 751 mmHg 85%

Tomorrow, 21 October, Wednesday

Time Temperature Precipitation Wind Pressure Humidity
00:00 +3°C° 0 mm 2 mps 751 mmHg 84%
01:00 +3°C° 0 mm 2 mps 751 mmHg 83%
02:00 +3°C° 0 mm 2 mps 751 mmHg 82%
03:00 +3°C° 0 mm 2 mps 751 mmHg 82%
04:00 +3°C° 0 mm 2 mps 750 mmHg 82%
05:00 +2°C° 0 mm 3 mps 750 mmHg 82%
06:00 +3°C° 0.2 mm 3 mps 749 mmHg 84%
07:00 +3°C° 0.2 mm 4 mps 749 mmHg 86%
08:00 +3°C° 0.2 mm 4 mps 748 mmHg 88%
09:00 +4°C° 0.5 mm 4 mps 748 mmHg 88%
10:00 +4°C° 0.5 mm 4 mps 747 mmHg 88%
11:00 +5°C° 0.5 mm 4 mps 747 mmHg 88%
12:00 +5°C° 0.4 mm 4 mps 747 mmHg 89%
13:00 +5°C° 0.4 mm 4 mps 746 mmHg 91%
14:00 +5°C° 0.4 mm 3 mps 746 mmHg 92%
15:00 +5°C° 0.1 mm 3 mps 746 mmHg 93%
16:00 +5°C° 0.1 mm 3 mps 746 mmHg 94%
17:00 +6°C° 0.1 mm 2 mps 745 mmHg 95%
18:00 +6°C° 0 mm 2 mps 745 mmHg 95%
19:00 +6°C° 0 mm 2 mps 746 mmHg 95%
20:00 +6°C° 0 mm 2 mps 746 mmHg 95%
21:00 +5°C° 0 mm 2 mps 746 mmHg 96%
22:00 +6°C° 0 mm 1 mps 745 mmHg 96%
23:00 +6°C° 0 mm 1 mps 745 mmHg 96%

Day after tomorrow, 22 October, Thursday

Time Temperature Precipitation Wind Pressure Humidity
00:00 +5°C° 0 mm 2 mps 745 mmHg 96%
01:00 +5°C° 0 mm 2 mps 746 mmHg 96%
02:00 +5°C° 0 mm 2 mps 746 mmHg 96%
03:00 +5°C° 0 mm 2 mps 745 mmHg 96%
04:00 +4°C° 0 mm 3 mps 745 mmHg 96%
05:00 +4°C° 0 mm 3 mps 744 mmHg 96%
06:00 +5°C° 0.6 mm 3 mps 744 mmHg 96%
07:00 +5°C° 0.6 mm 4 mps 743 mmHg 96%
08:00 +6°C° 0.6 mm 4 mps 743 mmHg 96%
09:00 +7°C° 0 mm 5 mps 743 mmHg 91%
10:00 +8°C° 0 mm 5 mps 743 mmHg 85%
11:00 +9°C° 0 mm 6 mps 743 mmHg 80%
12:00 +10°C° 0 mm 6 mps 743 mmHg 79%
13:00 +11°C° 0 mm 6 mps 743 mmHg 79%
14:00 +13°C° 0 mm 6 mps 743 mmHg 79%
15:00 +11°C° 0 mm 6 mps 743 mmHg 81%
16:00 +11°C° 0 mm 6 mps 743 mmHg 83%
17:00 +10°C° 0 mm 5 mps 743 mmHg 86%
18:00 +10°C° 0 mm 5 mps 743 mmHg 87%
19:00 +10°C° 0 mm 5 mps 744 mmHg 88%
20:00 +10°C° 0 mm 5 mps 744 mmHg 89%
21:00 +10°C° 0 mm 5 mps 744 mmHg 90%
22:00 +10°C° 0 mm 5 mps 744 mmHg 90%
23:00 +10°C° 0 mm 4 mps 744 mmHg 91%

23 October, Friday

Time Temperature Precipitation Wind Pressure Humidity
00:00 +9°C° 0 mm 5 mps 744 mmHg 92%
01:00 +9°C° 0 mm 5 mps 744 mmHg 92%
02:00 +9°C° 0 mm 5 mps 744 mmHg 93%
03:00 +8°C° 0 mm 5 mps 744 mmHg 93%
04:00 +8°C° 0 mm 4 mps 743 mmHg 94%
05:00 +8°C° 0 mm 4 mps 743 mmHg 95%
06:00 +8°C° 0 mm 5 mps 743 mmHg 94%
07:00 +9°C° 0 mm 5 mps 742 mmHg 93%
08:00 +9°C° 0 mm 5 mps 742 mmHg 93%
09:00 +10°C° 0 mm 6 mps 742 mmHg 87%
10:00 +11°C° 0 mm 6 mps 742 mmHg 82%
11:00 +12°C° 0 mm 7 mps 741 mmHg 76%
12:00 +12°C° 0 mm 7 mps 741 mmHg 76%
13:00 +12°C° 0 mm 7 mps 741 mmHg 76%
14:00 +12°C° 0 mm 7 mps 740 mmHg 76%
15:00 +12°C° 0.4 mm 7 mps 740 mmHg 79%
16:00 +11°C° 0.4 mm 7 mps 740 mmHg 81%
17:00 +11°C° 0.4 mm 6 mps 740 mmHg 83%
18:00 +10°C° 0.3 mm 6 mps 740 mmHg 85%
19:00 +10°C° 0.3 mm 5 mps 740 mmHg 87%
20:00 +10°C° 0.3 mm 5 mps 740 mmHg 88%
21:00 +11°C° 0 mm 4 mps 740 mmHg 89%
22:00 +11°C° 0 mm 4 mps 740 mmHg 90%
23:00 +11°C° 0 mm 4 mps 740 mmHg 90%

24 October, Saturday

Time Temperature Precipitation Wind Pressure Humidity
00:00 +10°C° 0 mm 4 mps 740 mmHg 90%
01:00 +9°C° 0 mm 3 mps 741 mmHg 91%
02:00 +8°C° 0 mm 3 mps 741 mmHg 91%
03:00 +7°C° 0 mm 3 mps 741 mmHg 91%
04:00 +7°C° 0 mm 3 mps 741 mmHg 92%
05:00 +5°C° 0 mm 3 mps 741 mmHg 92%
06:00 +6°C° 0 mm 2 mps 742 mmHg 92%
07:00 +6°C° 0 mm 2 mps 742 mmHg 91%
08:00 +6°C° 0 mm 2 mps 742 mmHg 90%
09:00 +7°C° 0 mm 2 mps 742 mmHg 85%
10:00 +8°C° 0 mm 2 mps 743 mmHg 79%
11:00 +9°C° 0 mm 2 mps 743 mmHg 74%
12:00 +10°C° 0 mm 1 mps 743 mmHg 73%
13:00 +11°C° 0 mm 1 mps 743 mmHg 72%
14:00 +11°C° 0 mm 1 mps 743 mmHg 71%
15:00 +10°C° 0 mm 1 mps 742 mmHg 75%
16:00 +10°C° 0 mm 1 mps 742 mmHg 79%
17:00 +9°C° 0 mm 1 mps 742 mmHg 82%
18:00 +9°C° 0 mm 1 mps 742 mmHg 83%
19:00 +8°C° 0 mm 2 mps 742 mmHg 83%
20:00 +8°C° 0 mm 2 mps 742 mmHg 84%
21:00 +8°C° 0.7 mm 2 mps 742 mmHg 86%
22:00 +8°C° 0.7 mm 3 mps 742 mmHg 87%
23:00 +7°C° 0.7 mm 3 mps 742 mmHg 89%

25 October, Sunday

Time Temperature Precipitation Wind Pressure Humidity
00:00 +7°C° 1.4 mm 3 mps 742 mmHg 90%
01:00 +7°C° 1.4 mm 3 mps 742 mmHg 91%
02:00 +6°C° 1.4 mm 4 mps 742 mmHg 92%
03:00 +6°C° 1.1 mm 4 mps 742 mmHg 92%
04:00 +6°C° 1.1 mm 4 mps 742 mmHg 92%
05:00 +6°C° 1.1 mm 4 mps 742 mmHg 93%
06:00 +6°C° 0.2 mm 4 mps 742 mmHg 93%
07:00 +6°C° 0.2 mm 4 mps 743 mmHg 93%
08:00 +6°C° 0.2 mm 4 mps 743 mmHg 92%
09:00 +6°C° 0 mm 4 mps 744 mmHg 91%
10:00 +6°C° 0 mm 4 mps 744 mmHg 90%
11:00 +7°C° 0 mm 4 mps 745 mmHg 88%
12:00 +7°C° 0 mm 4 mps 745 mmHg 86%
13:00 +8°C° 0 mm 3 mps 745 mmHg 84%
14:00 +9°C° 0 mm 3 mps 746 mmHg 81%
15:00 +9°C° 0 mm 3 mps 746 mmHg 82%
16:00 +8°C° 0 mm 3 mps 746 mmHg 83%
17:00 +8°C° 0 mm 2 mps 747 mmHg 84%
18:00 +8°C° 0 mm 2 mps 747 mmHg 85%
19:00 +7°C° 0 mm 2 mps 748 mmHg 85%
20:00 +8°C° 0 mm 1 mps 748 mmHg 86%
21:00 +8°C° 0 mm 1 mps 748 mmHg 87%
22:00 +7°C° 0 mm 1 mps 748 mmHg 89%
23:00 +6°C° 0 mm 1 mps 749 mmHg 90%
Show more